New Haven, CT

9:07 AM EDT on August 20, 2017 (GMT -0400)
Tweed-New Haven

Weather History for KHVN - June, 2013

Change the Weather History Date:

Saturday, June 8, 2013

  Actual Average Record
Temperature  
Mean Temperature 65 °F -  
Max Temperature 77 °F 71 °F 93 °F (1999)
Min Temperature 55 °F 55 °F 46 °F (2002)
Growing Degree Days 15 (Base 50)    
Moisture  
Dew Point 56 °F    
Average Humidity 80    
Maximum Humidity 94    
Minimum Humidity 60    
Precipitation  
Precipitation 2.14 in - - ()
Sea Level Pressure  
Sea Level Pressure 29.76 in    
Wind  
Wind Speed 12 mph (NNW)    
Max Wind Speed 21 mph    
Max Gust Speed 31 mph    
Visibility 8 miles    
Events Rain    
Averages and records for this station are not official NWS values.
T = Trace of Precipitation, MM = Missing Value Source: NWS Daily Summary

Daily Weather History Graph

Daily Weather History Graph

Search for Another Location

Airport or City:

Trip Planner

Search our weather history database for the weather conditions in past years. The results will help you decide how hot, cold, wet, or windy it might be!

Date:

Astronomy

Jun. 08, 2013 Rise Set
Actual Time 5:18 AM EDT 8:23 PM EDT
Civil Twilight 4:45 AM EDT 8:56 PM EDT
Nautical Twilight 4:02 AM EDT 9:39 PM EDT
Astronomical Twilight 3:11 AM EDT 10:30 PM EDT
Moon 5:24 AM EDT (6/8) 8:22 PM EDT (6/8)
Length of Visible Light 16h 11m
Length of Day
15h 04m
New Moon, 0% of the Moon is Illuminated
Jun 8
New Moon
Jun 16
First Quarter
Jun 23
Full
Jun 30
Last Quarter
Jul 8
New

Hourly Weather History & Observations

Time (EDT) Temp. Dew Point Humidity Pressure Visibility Wind Dir Wind Speed Gust Speed Precip Events Conditions
12:53 AM 59.0 °F 55.9 °F 90% 29.66 in 5.0 mi NNE 13.8 mph - 0.04 in Rain Light Rain
1:20 AM 59.0 °F 55.4 °F 88% 29.64 in 5.0 mi NE 8.1 mph - 0.02 in Rain Rain
1:29 AM 59.0 °F 55.4 °F 88% 29.64 in 8.0 mi NNE 11.5 mph 18.4 mph 0.02 in Rain Light Rain
1:53 AM 57.9 °F 55.0 °F 90% 29.62 in 6.0 mi NNE 13.8 mph 20.7 mph 0.04 in Rain Light Rain
2:11 AM 57.2 °F 55.4 °F 94% 29.61 in 5.0 mi NNE 17.3 mph - 0.01 in Rain Light Rain
2:18 AM 57.2 °F 55.4 °F 94% 29.60 in 4.0 mi NNE 17.3 mph 25.3 mph 0.01 in Rain Light Rain
2:53 AM 57.0 °F 54.0 °F 89% 29.58 in 4.0 mi NNE 17.3 mph 27.6 mph 0.03 in Rain Rain
3:33 AM 55.4 °F 53.6 °F 94% 29.57 in 2.0 mi North 19.6 mph - 0.03 in Rain Heavy Rain
3:43 AM 55.4 °F 53.6 °F 94% 29.57 in 1.5 mi North 19.6 mph 31.1 mph 0.04 in Rain Heavy Rain
3:53 AM 55.9 °F 53.1 °F 90% 29.57 in 1.8 mi North 20.7 mph 28.8 mph 0.04 in Rain Heavy Rain
4:02 AM 55.4 °F 53.6 °F 94% 29.57 in 2.0 mi North 19.6 mph 26.5 mph 0.01 in Rain Heavy Rain
4:19 AM 55.4 °F 53.6 °F 94% 29.56 in 3.0 mi North 18.4 mph 29.9 mph 0.02 in Rain Rain
4:53 AM 55.9 °F 52.0 °F 87% 29.57 in 9.0 mi North 19.6 mph 29.9 mph 0.04 in   Overcast
5:53 AM 55.9 °F 52.0 °F 87% 29.62 in 10.0 mi NNW 10.4 mph 25.3 mph 0.04 in   Overcast
5:54 AM 55.4 °F 51.8 °F 88% 29.62 in 10.0 mi NNW 11.5 mph 25.3 mph N/A   Overcast
5:56 AM 55.4 °F 51.8 °F 88% 29.62 in 10.0 mi North 13.8 mph 25.3 mph N/A   Overcast
6:53 AM 57.0 °F 53.1 °F 87% 29.68 in 10.0 mi NNW 11.5 mph 20.7 mph 0.04 in   Overcast
7:53 AM 61.0 °F 54.0 °F 78% 29.74 in 10.0 mi NW 6.9 mph - 0.04 in   Scattered Clouds
8:53 AM 64.9 °F 55.0 °F 70% 29.79 in 10.0 mi WNW 5.8 mph - 0.03 in   Scattered Clouds
9:53 AM 66.9 °F 55.9 °F 68% 29.81 in 10.0 mi NW 5.8 mph - 0.05 in   Scattered Clouds
10:53 AM 69.1 °F 55.9 °F 63% 29.85 in 10.0 mi WNW 13.8 mph - 0.06 in   Mostly Cloudy
11:53 AM 68.0 °F 59.0 °F 73% 29.88 in 10.0 mi SW 9.2 mph - 0.06 in   Mostly Cloudy
12:53 PM 69.1 °F 60.1 °F 73% 29.88 in 10.0 mi SSW 9.2 mph 18.4 mph 0.12 in   Mostly Cloudy
1:53 PM 70.0 °F 61.0 °F 73% 29.89 in 10.0 mi SSW 9.2 mph 19.6 mph 0.17 in   Mostly Cloudy
2:53 PM 73.0 °F 61.0 °F 66% 29.89 in 10.0 mi SSW 9.2 mph - 0.18 in   Mostly Cloudy
3:53 PM 73.0 °F 61.0 °F 66% 29.89 in 10.0 mi SSW 6.9 mph - 0.21 in   Mostly Cloudy
4:53 PM 75.9 °F 61.0 °F 60% 29.91 in 10.0 mi SW 4.6 mph - 0.18 in   Partly Cloudy
5:53 PM 73.0 °F 61.0 °F 66% 29.92 in 10.0 mi SSW 9.2 mph - 0.15 in   Mostly Cloudy
6:53 PM 72.0 °F 62.1 °F 71% 29.94 in 10.0 mi SSW 6.9 mph - 0.14 in   Overcast
7:53 PM 73.0 °F 62.1 °F 68% 29.96 in 10.0 mi WSW 5.8 mph - 0.12 in   Mostly Cloudy
8:53 PM 73.0 °F 60.1 °F 64% 29.96 in 10.0 mi Calm Calm - 0.11 in   Clear
9:53 PM 70.0 °F 60.1 °F 71% 30.00 in 10.0 mi Calm Calm - 0.10 in   Clear
10:53 PM 68.0 °F 57.9 °F 70% 30.03 in 10.0 mi NNW 3.5 mph - 0.08 in   Clear
11:53 PM 66.9 °F 59.0 °F 76% 30.04 in 10.0 mi Calm Calm - 0.07 in   Clear